Location: *
(44.3683°N, 6.6958°E)
Time: 09:47:42
(UTC+00:00)

Envisat - Pass Details

Date: 14 October 2019
Orbit: 764 x 766 km, 98.1° (Epoch: 13 November)

Event Time Altitude Azimuth Distance (km) Brightness Sun altitude
Rises 17:51:15 0° 174° (S) 3,219 6.2 -11.5°
Reaches altitude 10° 17:53:34 10° 178° (S) 2,297 5.5 -11.9°
Maximum altitude 17:58:35 62° 259° (W) 863 3.6 -12.8°
Drops below altitude 10° 18:03:38 10° 340° (NNW) 2,313 5.8 -13.7°
Sets 18:05:59 0° 344° (NNW) 3,244 6.5 -14.1°
